Tracking 22124 objects as of 24-Jan-2021
HD Live streaming from Space Station
objects crossing your sky now

YARILO-2

Track YARILO-2 now!
10-day predictions
YARILO-2 is classified as:


NORAD ID: 46491
Int'l Code: 2020-068F
Perigee: 550.5 km
Apogee: 575.0 km
Inclination: 97.7 °
Period: 95.8 minutes
Semi major axis: 6933 km
RCS: Unknown
Launch date: September 28, 2020
Source: (UNK)
Launch site: PLESETSK MISSILE AND SPACE COMPLEX (PKMTR)

Uplink (MHz):
Downlink (MHz): 435.550
Beacon (MHz):
Mode:
Call sign:
Status: Active

aabbcc
Your satellite tracking list
Your tracking list is empty




NASA's NSSDC Master Catalog

Two Line Element Set (TLE):
1 46491U 20068F   21023.80958439  .00000486  00000-0  39963-4 0  9996
2 46491  97.6826 322.3382 0017684 201.9139 158.1332 15.03660440 17626
Source of the keplerian elements: AFSPC